Location: Unspecified
(0.0000°N, 0.0000°E)
Time: 06:33:35
(UTC+00:00)

S-56A Canister/Altair - Pass Details

Date: 26 November 2019
Orbit: 633 x 2499 km, 38.9° (Epoch: 10 December)

Event Time Altitude Azimuth Distance (km) Brightness Sun altitude
Rises 11:09:04 0° 230° (SW) 5,747 12.1 67.1°
Reaches altitude 10° 11:12:34 10° 231° (SW) 4,896 11.9 67.4°
Maximum altitude 11:27:19 83° 317° (NW) 2,512 11.5 68.5°
Drops below altitude 10° 11:41:42 10° 45° (NE) 4,785 11.6 69.0°
Sets 11:45:05 0° 46° (NE) 5,615 11.8 69.1°
